GEFSSGP_500_meanwind_138.txt.gz
Wind_Speed
14 14 14 13 13 13 14 14 14 14 13 12 11 10 9 8 6 6 6 7 7 6 6 6 6 6 6 6 6 6 5 5 5 5 6 6 6 6 6 6 6 5 5 5 5 4 5 5 5
14 14 14 14 13 13 15 15 15 14 13 12 12 12 10 9 8 8 8 7 8 7 7 7 7 7 7 7 7 7 6 6 6 6 6 5 5 6 6 6 6 5 5 4 4 4 3 4 4
15 15 14 14 14 14 16 15 15 14 13 13 13 12 11 11 10 8 8 8 8 8 8 8 9 9 9 8 8 8 8 7 7 7 6 6 6 6 6 6 6 6 6 5 5 4 4 3 3
15 15 14 14 14 14 15 15 15 14 14 14 13 12 11 10 9 8 8 9 9 10 9 9 9 10 10 9 8 8 8 8 8 8 7 7 7 7 7 7 7 7 6 6 6 5 5 4 4
15 15 14 13 14 15 15 15 15 15 15 14 14 13 11 10 9 8 9 10 11 11 11 10 10 10 11 10 9 9 8 8 9 8 8 8 8 8 8 9 9 8 8 7 7 6 6 6 5
15 14 13 13 14 15 15 15 15 15 15 15 14 13 11 10 9 9 9 10 11 12 12 12 12 12 11 11 10 10 9 9 9 9 9 9 8 9 9 10 10 10 9 9 9 8 8 7 7
15 13 12 13 14 15 15 15 15 15 15 15 14 13 11 10 9 10 11 12 13 13 13 13 13 13 13 12 12 11 11 10 10 10 10 10 10 10 10 10 11 12 12 11 11 10 10 9 9
14 13 12 12 13 15 15 15 15 15 15 14 13 13 12 12 11 11 12 13 14 14 14 13 13 14 14 14 13 12 12 12 11 11 11 11 10 11 11 11 11 12 13 13 13 12 12 11 11
14 12 12 13 13 15 15 15 15 15 14 13 13 14 13 12 12 12 13 14 14 15 14 14 14 14 14 15 15 14 13 13 13 13 12 12 12 12 12 12 12 12 14 15 15 15 14 14 13
13 12 13 14 14 15 16 15 15 14 13 13 13 13 13 13 12 12 13 14 14 14 15 15 16 15 15 15 16 15 14 14 14 14 13 13 13 13 13 13 13 13 13 14 15 15 16 15 16
13 12 13 14 15 15 15 14 14 13 13 13 12 12 12 12 12 13 13 13 15 15 15 16 16 15 16 16 15 16 15 15 14 14 13 13 14 14 15 14 14 14 14 13 15 15 16 16 17
13 13 13 14 15 15 14 14 13 12 12 12 12 11 11 11 12 12 12 13 14 14 15 16 16 16 16 16 16 16 16 15 15 15 14 14 14 15 15 14 13 13 14 14 15 16 16 16 17
14 14 14 15 15 14 13 13 13 12 11 11 10 9 9 10 10 10 11 13 13 13 14 15 16 16 16 16 16 16 16 16 15 15 15 16 15 14 14 13 13 14 15 15 15 16 16 16 17
14 14 14 14 14 13 13 12 12 10 9 8 7 6 6 7 7 7 9 12 13 14 14 14 14 15 16 16 16 15 15 16 15 13 13 14 14 14 14 13 13 14 15 15 16 16 17 18 18
14 14 14 14 13 12 13 11 11 8 7 7 6 5 5 5 6 6 8 10 11 13 13 13 14 14 15 15 15 14 14 14 13 12 12 13 14 14 14 13 13 13 15 15 16 17 17 18 18
14 13 14 14 12 12 12 11 10 7 6 6 4 4 4 4 4 4 6 8 9 10 11 12 12 12 13 14 14 13 13 13 13 13 12 13 13 13 13 13 13 14 15 16 16 17 17 18 18
14 13 12 13 12 11 10 9 9 6 5 5 3 3 3 3 2 2 4 6 8 8 8 9 10 11 11 11 12 11 11 11 11 11 11 12 12 13 13 14 14 14 15 16 16 17 17 18 18
12 11 11 12 12 10 9 8 8 6 6 5 4 3 3 3 2 2 2 4 5 6 7 8 9 9 10 10 10 10 10 10 10 10 10 11 12 12 13 14 14 15 15 16 16 17 18 18 18
11 11 10 11 11 9 8 7 7 6 5 5 5 4 3 3 2 2 0 2 3 4 6 7 7 8 8 9 9 10 9 9 9 8 9 10 11 12 12 13 13 14 15 16 17 17 17 17 18
11 10 10 10 9 8 7 6 6 6 5 5 5 4 3 2 1 1 0 1 2 2 3 4 5 6 7 7 7 7 7 7 7 8 8 9 10 11 11 12 13 13 14 14 15 16 16 17 18
10 9 8 8 7 7 6 6 6 6 6 6 5 4 3 2 2 2 2 2 1 2 2 3 3 3 4 5 5 5 5 5 6 6 6 8 9 9 10 11 12 13 13 13 14 15 15 16 17
10 9 8 7 6 6 6 6 7 6 5 5 4 3 2 2 1 2 2 2 2 2 2 2 2 1 2 3 3 3 4 4 4 5 6 7 7 8 9 10 11 12 12 13 13 14 15 16 17
9 9 7 6 6 6 7 6 6 6 5 3 3 2 2 1 1 2 2 2 2 2 2 2 2 1 1 1 1 2 3 3 4 4 5 6 6 7 7 8 9 11 11 12 12 13 14 15 16
10 9 7 6 6 6 7 7 6 5 4 4 3 2 1 1 1 1 1 2 2 3 3 2 1 1 1 1 0 0 1 2 3 4 4 4 5 6 7 8 8 10 10 11 11 12 13 14 15
11 8 6 6 6 7 8 7 5 4 4 3 2 2 1 1 0 0 1 1 2 3 2 2 1 1 1 1 1 1 1 2 2 3 3 4 5 6 6 7 8 8 9 9 10 11 12 14 15
11 9 7 6 6 8 8 6 6 5 5 4 3 2 2 1 1 1 0 1 2 2 2 2 1 1 1 1 1 1 1 2 2 2 3 4 5 6 7 8 8 8 9 9 10 11 12 13 14
11 10 9 8 7 6 6 6 6 6 5 4 3 2 2 2 2 2 1 1 1 1 1 1 1 0 0 1 1 1 2 2 2 3 4 4 6 7 7 8 8 9 10 11 12 12 13 13 14
13 11 10 8 7 5 6 6 6 6 5 4 3 3 3 3 2 3 3 2 2 1 1 1 1 1 1 1 1 2 2 2 3 4 4 5 6 7 8 9 9 10 10 11 12 12 13 13 14
14 12 11 10 9 7 7 7 8 7 6 5 5 4 4 4 4 4 4 4 3 3 2 2 2 2 2 2 2 2 2 3 4 4 5 6 7 8 9 10 11 11 12 13 13 13 13 14 15
16 14 13 12 11 9 7 8 9 8 8 7 6 6 5 5 5 5 5 5 5 5 4 4 4 4 4 4 3 3 3 4 5 5 6 7 8 9 10 11 12 12 13 14 15 15 15 15 16

GEFSSGP_500_meanwind_144.txt.gz
Wind_Speed
11 10 9 8 6 7 6 5 10 13 13 11 11 10 10 11 11 11 11 10 9 9 10 9 9 9 8 8 7 7 6 6 6 5 5 5 4 4 4 4 4 4 4 3 3 3 3 4 4
11 10 9 7 6 7 9 11 14 15 16 13 12 12 11 11 11 12 12 11 10 11 11 10 10 10 9 9 9 9 8 8 7 6 6 6 5 5 4 4 4 4 4 3 3 3 3 3 3
11 10 9 7 6 5 10 16 19 17 15 14 13 12 12 12 12 13 13 13 10 11 12 12 11 11 10 10 10 10 10 9 9 8 8 7 6 6 6 5 5 5 4 4 3 3 3 3 2
10 9 8 6 5 7 14 17 18 18 16 15 14 13 12 13 13 13 13 13 12 11 12 12 12 12 11 11 11 10 10 10 10 10 9 9 8 7 7 7 7 6 6 5 5 4 4 4 3
9 7 8 7 7 12 16 19 17 17 16 15 16 16 14 13 13 11 12 13 13 12 13 13 13 12 12 12 12 12 11 12 11 11 11 10 9 9 8 8 8 8 7 7 7 6 6 6 5
9 7 7 7 9 15 19 19 16 16 16 17 17 16 14 13 13 12 13 14 13 13 14 14 14 14 14 13 13 13 12 12 12 12 11 11 11 10 10 10 10 9 9 9 9 8 7 7 7
8 6 5 6 12 17 19 20 17 17 18 18 17 15 13 12 12 13 14 14 14 14 15 15 16 15 15 15 15 14 13 14 14 13 13 12 12 11 11 11 11 12 11 12 11 10 10 9 9
7 5 4 5 12 15 17 18 17 18 18 16 17 16 15 13 13 13 14 15 14 14 16 16 16 16 17 16 16 15 15 15 14 14 14 14 13 12 12 12 13 13 13 13 13 13 12 11 11
6 5 4 6 13 16 17 18 18 18 18 17 17 16 14 14 14 14 15 15 15 15 16 16 17 17 18 18 17 17 17 16 15 14 14 14 14 13 13 13 14 14 14 15 15 15 14 14 13
7 7 7 11 17 17 17 18 18 19 18 18 16 14 13 14 15 15 16 16 15 16 16 17 18 18 18 18 18 17 17 17 16 15 15 15 15 14 14 15 14 15 15 15 16 16 16 16 15
8 9 11 13 15 16 16 16 17 18 18 18 17 15 15 15 15 16 17 17 16 17 17 18 18 17 17 18 17 17 17 16 16 16 15 15 15 14 14 14 14 15 16 16 17 17 17 17 17
10 11 12 13 14 15 15 15 16 17 18 17 15 15 14 15 15 16 16 14 14 15 15 15 16 15 16 17 16 16 17 16 16 16 16 16 15 14 15 14 14 15 16 16 17 18 17 18 18
12 13 13 14 15 15 15 15 16 16 16 16 16 14 14 13 13 13 14 14 15 14 14 14 16 16 15 15 15 16 17 17 17 16 16 16 15 15 15 14 14 14 13 15 16 16 16 17 17
11 12 13 13 13 15 15 14 14 14 15 15 14 13 12 11 11 12 11 12 12 13 13 14 14 13 14 14 14 15 16 16 16 15 15 14 14 13 13 12 13 13 13 14 14 14 15 16 16
10 12 13 14 14 16 17 14 12 13 13 14 13 12 11 10 10 10 10 10 11 12 13 14 14 12 12 13 14 14 14 14 14 13 13 12 12 12 12 12 13 13 13 13 14 13 14 16 16
11 13 13 13 14 16 17 15 12 12 12 12 11 10 9 9 9 8 8 9 9 10 11 12 12 11 11 12 12 13 13 13 13 13 13 12 12 12 12 12 13 13 13 13 14 14 14 14 15
12 14 13 13 15 15 16 14 13 13 12 12 10 9 8 9 8 7 7 7 8 9 9 10 10 11 11 10 10 11 11 11 11 12 12 12 12 11 12 12 12 13 13 13 14 14 15 15 15
11 12 12 14 14 15 14 14 13 12 11 11 10 9 8 8 7 6 6 6 7 7 7 8 8 9 9 9 9 10 10 10 10 10 11 11 11 11 11 11 13 13 13 14 14 14 14 15 15
10 11 12 13 13 13 13 12 11 11 11 11 10 8 8 7 6 5 5 5 5 4 4 4 5 6 7 7 7 8 9 8 8 9 9 9 10 10 10 11 12 12 13 13 13 14 14 14 15
11 11 11 10 10 11 12 10 9 10 10 9 9 7 7 5 5 4 4 3 4 3 3 4 4 4 5 6 5 5 6 7 7 8 8 8 9 9 9 10 10 11 11 12 12 13 13 13 14
12 12 10 9 9 9 10 9 9 10 10 10 9 7 6 5 3 3 3 2 2 1 2 2 2 3 4 4 5 5 5 5 5 6 7 7 8 8 8 8 9 9 10 11 11 12 12 13 14
12 10 10 10 9 8 9 10 10 10 9 9 8 7 5 4 2 2 2 1 1 1 1 1 1 2 3 4 4 4 3 4 4 5 5 6 6 6 7 7 8 9 9 10 10 11 12 12 13
12 11 11 10 10 10 10 10 12 11 10 8 6 5 3 3 2 2 2 1 1 1 1 0 0 1 1 2 2 2 2 3 3 3 4 5 5 5 6 7 8 8 9 10 10 10 11 11 12
14 12 12 12 12 12 9 9 12 10 9 8 6 4 2 2 1 1 2 2 2 2 2 2 2 3 3 2 2 1 0 1 1 2 2 3 4 4 5 6 7 8 8 8 9 9 10 10 11
14 12 13 12 10 10 8 9 11 9 8 8 7 4 3 2 1 0 1 1 2 2 2 3 3 3 3 3 2 2 1 1 2 2 2 3 3 4 5 6 7 7 8 8 8 9 10 11 11
13 12 13 13 12 12 10 8 7 8 7 8 7 5 3 3 2 1 1 1 1 1 1 2 2 2 2 2 2 2 1 2 2 2 2 3 4 5 5 6 7 8 8 8 9 10 10 11 12
14 13 12 13 14 13 10 8 6 5 6 6 6 5 4 4 3 2 2 1 0 1 1 1 1 1 1 1 1 1 1 1 2 2 3 4 4 5 6 7 8 8 9 9 10 10 11 12 12
13 13 12 13 14 11 9 8 7 5 6 5 6 5 4 4 4 3 3 2 2 2 1 1 1 1 1 1 1 1 1 2 2 3 4 4 5 6 7 8 9 9 10 10 10 11 12 13 13
15 15 15 14 15 12 11 10 9 8 7 6 5 5 5 5 4 4 4 4 3 3 2 2 2 2 2 2 2 2 3 3 3 4 4 5 6 7 8 9 9 10 10 11 11 12 13 13 14
18 17 16 16 15 13 12 12 9 8 8 6 7 6 6 6 6 5 5 5 5 4 4 4 3 3 3 3 3 3 4 4 4 5 5 6 7 8 9 9 10 10 11 11 12 13 13 14 15

GEFSSGP_500_meanwind_150.txt.gz
Wind_Speed
9 9 8 7 7 6 6 6 8 9 11 13 13 13 13 11 10 9 7 7 6 6 7 7 7 7 6 5 4 4 4 4 3 3 2 2 2 1 1 1 1 0 1 1 2 2 3 3 3
9 9 8 7 7 7 8 10 9 10 13 14 14 13 13 11 10 9 8 7 7 7 8 8 8 8 8 7 6 6 5 5 4 4 3 3 3 3 3 2 2 2 2 1 1 1 1 2 2
10 9 8 7 8 9 8 10 11 13 16 16 16 14 13 10 9 9 8 8 8 8 8 9 10 10 10 9 8 7 7 6 6 5 5 4 4 4 4 4 4 3 3 2 2 2 1 1 2
10 9 8 7 9 10 11 11 13 16 18 18 18 16 15 13 11 10 9 9 9 9 9 10 11 11 11 10 9 9 8 8 7 6 6 6 5 5 5 5 6 5 5 4 3 3 3 2 2
10 9 8 8 10 10 11 12 14 17 19 20 20 17 15 13 11 10 9 9 9 10 11 11 12 12 12 12 11 10 10 9 9 8 8 7 7 6 6 6 7 7 6 6 5 5 4 4 3
11 9 9 9 9 9 10 13 16 18 20 19 18 16 15 12 11 9 10 10 10 10 11 12 13 13 13 13 12 11 11 10 10 9 9 9 8 8 8 7 8 8 8 8 7 7 6 6 5
10 10 11 11 11 10 11 14 17 20 21 21 19 18 14 11 10 9 10 10 11 11 11 12 13 14 14 14 14 13 12 11 10 10 10 9 9 9 9 9 9 9 9 10 9 9 8 8 7
12 11 11 11 11 11 13 16 18 20 21 21 19 17 15 12 11 10 10 9 10 12 13 13 14 14 15 15 15 14 13 12 12 11 11 11 10 10 10 10 10 11 11 11 11 11 10 9 8
11 10 11 11 10 11 14 17 19 20 20 19 18 17 15 14 12 10 10 9 10 12 13 13 14 14 15 16 16 15 14 13 12 12 12 12 12 11 11 11 11 12 12 12 12 12 12 11 10
10 10 11 11 12 13 15 17 19 19 19 18 17 16 15 14 11 9 9 10 11 12 12 13 13 14 15 16 17 17 15 15 13 13 14 14 13 13 12 12 12 12 13 13 13 13 13 13 12
10 10 11 12 13 13 15 17 19 19 19 18 16 15 14 13 11 11 11 11 12 11 12 13 14 14 14 16 16 16 16 15 15 15 15 15 14 13 13 12 12 13 13 13 14 14 14 14 13
11 10 11 12 13 13 14 16 17 17 17 15 15 13 12 11 11 11 12 11 12 12 12 12 13 14 15 16 15 15 16 17 16 15 14 14 14 13 12 12 13 12 13 12 13 14 14 14 15
10 10 11 12 13 14 14 16 16 15 14 13 13 14 12 12 12 10 11 12 12 12 12 11 12 12 13 13 14 14 15 15 16 15 14 14 14 12 12 12 12 12 11 11 11 12 13 14 15
11 11 12 12 12 13 13 14 14 13 13 12 12 12 11 11 10 9 9 10 11 11 11 12 11 11 12 12 13 13 13 14 14 14 13 13 12 11 11 11 10 10 10 11 11 12 12 14 14
11 11 11 11 11 11 11 12 12 12 12 12 11 11 11 10 9 8 7 8 8 9 11 12 12 11 11 12 13 12 12 12 13 13 12 11 11 10 10 10 10 10 10 11 11 12 12 12 14
10 9 9 9 10 9 10 11 11 12 12 12 11 10 10 9 8 7 7 6 5 6 9 9 10 10 10 11 12 11 10 10 10 11 11 10 10 9 9 10 10 9 10 10 10 11 11 12 13
9 9 8 8 9 9 10 10 11 11 11 11 11 9 8 8 7 7 7 6 6 6 8 7 7 8 8 9 10 9 9 9 10 10 10 10 10 9 9 9 9 9 10 10 10 10 11 11 12
8 9 9 9 8 9 10 11 10 9 9 10 9 8 7 6 6 6 5 5 5 5 6 6 8 8 8 8 10 9 9 9 8 8 9 9 8 8 8 8 9 9 9 9 9 10 10 11 12
9 10 10 9 9 10 9 10 10 9 8 9 8 8 6 5 5 4 4 3 3 4 5 6 7 7 8 8 9 9 9 8 7 7 7 7 7 7 7 7 8 8 8 8 8 9 10 11 11
11 11 10 9 9 10 10 10 10 10 9 9 8 7 6 5 4 3 3 2 3 4 5 5 6 7 7 7 7 7 8 8 7 6 6 6 6 6 6 6 6 6 7 7 8 9 10 10 10
12 12 10 10 11 12 12 12 12 11 10 9 7 6 6 4 3 2 2 3 3 4 5 5 5 6 6 7 7 7 7 7 7 6 5 5 5 5 5 5 5 5 6 6 7 7 8 9 9
13 11 11 11 13 13 14 14 11 10 10 8 6 5 4 3 1 2 4 4 4 4 5 5 6 6 6 6 7 6 6 7 6 5 5 4 4 4 4 4 4 4 4 4 5 6 6 7 7
13 11 12 13 15 15 15 15 12 9 8 7 5 4 3 1 1 3 4 4 4 4 4 5 6 7 7 6 7 7 7 7 6 5 4 3 2 2 2 2 2 2 2 3 4 4 5 6 6
14 14 15 15 16 16 15 13 11 10 8 6 5 4 2 2 3 4 5 4 4 4 5 6 6 7 7 7 7 7 7 7 6 5 4 3 2 2 1 1 1 1 2 2 3 4 4 5 6
15 16 16 17 16 15 15 14 11 10 8 6 3 3 4 4 4 5 5 5 4 5 5 6 6 6 7 7 7 7 7 6 6 5 4 4 3 2 2 1 1 1 2 2 3 3 4 5 6
15 17 17 18 16 15 15 14 11 9 7 6 4 4 5 6 6 6 6 5 5 5 5 6 6 6 7 7 7 7 7 6 6 5 4 4 3 2 2 1 2 2 2 3 3 4 5 5 6
18 19 18 18 16 15 15 12 9 7 7 7 5 5 5 7 7 7 6 5 5 5 5 5 6 6 6 6 7 7 7 7 6 5 4 4 3 2 1 1 1 2 2 3 4 5 5 6 7
21 21 20 20 18 16 15 12 10 9 7 7 6 7 7 8 8 7 6 6 5 5 5 5 5 5 5 6 7 7 7 6 6 5 4 3 2 1 0 1 2 3 4 4 4 5 6 6 7
20 21 20 19 19 18 16 14 12 10 8 6 4 7 9 9 9 8 7 6 5 5 5 5 5 5 6 6 7 7 6 6 5 4 3 3 2 1 1 1 2 3 4 5 5 6 6 7 8
20 20 20 20 19 18 17 14 12 11 9 7 5 7 8 8 8 8 7 6 6 6 5 5 5 5 6 6 7 6 5 5 5 4 3 2 2 2 2 2 3 4 5 5 6 7 7 8 9

GEFSSGP_500_meanwind_156.txt.gz
Wind_Speed
12 11 12 12 11 10 10 11 10 10 9 9 9 10 10 9 7 7 7 6 6 6 6 6 5 5 5 5 5 5 5 4 4 4 3 3 3 3 3 3 4 4 4 4 4 4 4 4 4
12 12 12 12 11 11 11 11 11 11 11 10 10 10 9 9 8 8 8 8 7 7 7 7 6 6 6 5 5 4 4 4 3 3 2 2 2 2 2 2 2 3 3 3 3 3 3 3 3
13 13 13 13 12 12 12 12 11 12 11 11 12 12 10 9 9 9 9 9 8 7 7 8 8 7 6 6 5 4 4 4 3 3 2 1 1 1 1 1 1 1 2 2 2 2 2 2 2
13 13 13 13 13 12 11 11 12 11 11 11 12 12 10 10 9 8 8 8 8 8 8 9 8 8 7 7 6 5 5 4 4 3 2 1 1 0 0 0 0 0 1 2 2 2 1 1 1
14 14 14 13 13 13 11 11 12 12 11 12 13 12 11 10 9 8 8 8 9 9 9 9 9 8 8 8 7 6 6 5 4 4 3 2 2 2 2 2 2 2 2 2 2 2 2 2 2
15 14 14 14 13 13 12 12 13 13 12 12 13 12 11 10 9 9 8 8 9 10 10 10 10 9 9 9 8 7 6 6 5 5 4 4 4 3 4 4 4 3 3 3 3 3 3 2 2
15 15 14 14 14 14 13 13 13 13 13 13 13 13 11 11 10 9 8 8 9 10 11 11 10 10 10 10 9 9 8 7 6 6 6 6 5 5 5 5 5 5 5 4 4 4 4 3 3
15 15 15 14 14 13 13 13 13 14 14 14 14 13 13 12 12 10 9 9 9 10 11 11 11 10 10 10 10 10 10 8 8 7 7 7 6 6 6 7 7 6 6 5 5 5 5 4 4
15 15 14 14 13 13 13 13 13 14 14 14 14 13 13 13 12 11 10 9 9 10 11 11 11 11 10 10 11 11 11 11 10 9 8 8 7 7 7 7 7 7 7 6 6 6 6 6 5
15 14 14 14 14 14 14 13 14 14 15 15 15 13 13 12 11 10 10 9 9 10 10 11 11 11 11 12 12 12 12 12 11 10 10 10 9 9 8 8 8 8 8 8 7 7 7 7 7
14 14 14 14 15 15 14 14 14 14 14 14 14 12 11 11 10 10 10 9 8 9 9 9 11 11 12 13 13 13 13 13 12 11 11 11 11 10 10 9 10 9 9 9 9 9 9 9 8
14 14 14 14 15 15 15 14 14 13 13 12 12 10 10 11 10 10 9 9 9 9 9 10 10 12 13 14 14 13 14 14 13 13 13 11 12 11 11 11 10 10 10 10 10 10 10 10 10
14 13 14 14 15 15 16 15 14 13 12 12 11 10 10 10 9 9 8 9 9 10 10 11 11 12 12 14 14 14 14 15 14 13 14 13 12 12 12 11 11 10 10 9 9 10 10 10 10
14 13 13 14 15 15 15 14 14 13 12 12 11 10 9 9 9 8 8 8 9 10 11 11 10 12 12 12 14 13 14 14 14 14 14 14 12 11 11 11 10 10 9 9 9 9 9 10 10
15 14 13 13 14 14 14 14 14 13 12 12 11 10 9 9 8 8 8 8 9 10 10 12 12 11 12 12 13 14 14 13 13 13 13 13 12 11 10 10 10 10 9 9 9 9 8 9 9
15 14 13 12 14 14 14 14 13 13 12 12 12 10 10 9 9 8 8 7 9 9 11 12 12 12 12 13 13 13 13 13 13 12 12 11 12 11 10 10 10 10 9 8 8 8 8 9 9
16 15 14 13 13 14 15 14 13 13 12 12 11 10 10 10 9 9 9 8 9 10 11 11 11 11 12 13 13 13 13 13 13 12 12 11 11 11 10 10 10 10 9 8 8 8 8 8 9
16 15 14 12 13 14 14 13 13 13 13 12 12 10 10 10 10 10 9 9 9 10 11 11 11 12 12 12 13 13 13 12 12 11 11 11 10 10 10 10 9 9 9 8 8 8 8 8 9
17 16 14 12 13 14 14 14 13 13 13 11 10 10 11 10 10 10 9 8 8 9 9 11 11 11 12 13 12 12 13 12 11 10 10 10 9 9 10 9 9 8 8 8 8 7 7 8 8
18 16 14 13 13 14 15 14 13 13 12 11 11 11 11 10 9 8 8 7 7 8 9 10 10 11 12 12 12 12 12 11 10 9 9 9 9 8 9 8 7 7 7 7 7 6 7 7 7
18 17 15 14 15 16 17 15 15 13 12 12 11 10 9 9 8 7 7 7 7 8 9 10 10 10 11 11 12 12 11 10 9 8 8 8 7 7 7 7 7 6 6 6 6 6 6 7 7
18 17 16 15 15 16 16 14 14 13 13 13 11 10 8 7 7 7 7 8 8 9 9 10 10 10 11 12 12 12 11 11 10 9 8 7 6 6 6 6 6 6 5 6 6 6 6 7 7
18 17 17 17 16 16 16 15 14 14 12 12 10 9 8 7 6 6 7 8 9 9 9 9 9 10 10 11 11 12 11 11 11 10 8 8 7 6 6 6 5 5 5 5 5 6 6 6 7
18 18 19 18 17 17 16 17 15 14 12 11 10 9 8 6 6 6 7 8 9 9 9 9 9 11 10 10 11 11 11 11 11 10 9 8 7 6 6 6 5 5 4 4 4 5 5 5 6
19 18 18 18 17 16 16 16 15 12 12 11 10 9 7 7 7 8 7 7 8 9 9 9 10 11 11 10 11 11 11 11 10 9 9 8 8 7 6 5 5 4 4 4 4 4 4 5 5
18 18 18 18 17 17 17 16 14 12 11 10 9 8 6 7 7 8 8 7 9 9 9 9 9 11 11 11 10 11 11 10 10 9 9 8 8 7 6 5 5 5 5 4 4 4 4 4 5
18 19 19 19 18 18 17 16 15 13 11 10 8 8 7 7 7 7 7 8 9 9 9 8 8 9 10 10 10 10 11 10 10 9 9 9 8 7 7 6 5 4 4 4 4 4 4 5 5
18 18 19 20 20 18 17 15 14 12 11 9 8 8 8 8 8 7 6 8 9 10 9 9 9 9 9 10 10 11 11 10 10 10 9 9 8 7 7 6 5 4 4 4 4 4 5 5 6
20 19 20 21 20 18 16 15 14 12 11 10 9 9 9 8 9 9 8 8 9 10 10 9 9 9 10 10 11 10 10 11 10 10 10 9 8 8 7 6 5 4 4 4 4 5 5 6 6
22 20 20 20 20 19 17 13 13 13 12 11 11 11 11 10 10 10 9 9 10 10 10 10 10 9 10 11 11 10 11 10 10 10 9 9 8 7 7 6 6 5 5 5 5 6 6 7 8